Location: Newark
(46.7000°N, 60.6000°W)
Time: 07:35:21
(UTC+00:00)

Vanguard 3 - Pass Details

Date: 04 November 2020
Orbit: 508 x 3262 km, 33.3° (Epoch: 29 November)

Event Time Altitude Azimuth Distance (km) Brightness Sun altitude
Rises 04:41:51 0° 172° (S) 4,857 - -56.7°
Reaches altitude 10° 04:48:32 10° 141° (SE) 4,588 - -56.2°
Maximum altitude 04:52:01 11° 126° (SE) 4,799 - -55.9°
Exits shadow 04:53:30 11° 120° (ESE) 4,948 11.1 -55.8°
Drops below altitude 10° 04:55:55 10° 110° (ESE) 5,251 11.3 -55.6°
Sets 05:05:39 0° 85° (E) 6,895 12.2 -54.7°
